Regional Weather Roundup
Issued by NWS

Home | Current Version | Previous Version | Graphics & Text | Print | Product List | Glossary On
Versions: 1 2 3 4 5 6 7 8 9 10 11 12 13 14 15 16 17 18 19 20 21 22 23 24 25 26 27
000
ASUS45 KBOU 181307
RWRCO

WEATHER ROUNDUP FOR COLORADO
NATIONAL WEATHER SERVICE DENVER/BOULDER CO
600 AM MST WED JAN 18 2017

NOTE: "FAIR" INDICATES FEW OR NO CLOUDS BELOW 12000 FEET WITH NO
SIGNIFICANT WEATHER AND/OR OBSTRUCTIONS TO VISIBILITY.

COZ001>005-013-030-031-181400-
...NORTHWEST COLORADO...

CITY           SKY/WX    TMP DP  RH WIND       PRES   REMARKS
CRAIG          CLOUDY     3  -1  83 CALM      30.17S
HAYDEN         FAIR      10   7  85 E15       30.13S WCI  -6
MEEKER         FAIR      11   7  84 NE3       30.14F
MOUNT WERNER   NOT AVBL
STEAMBOAT SPGS   N/A      1  -3  85 CALM      30.14F VSB 1/2
WALDEN           N/A    N/A N/A N/A CALM      30.13S VSB 1/2
$$

COZ006>008-011-181400-
...WEST CENTRAL VALLEYS...

CITY           SKY/WX    TMP DP  RH WIND       PRES   REMARKS
GRAND JUNCTION FAIR      28  27  96 E6        30.14S WCI  22
MONTROSE       CLOUDY    32  30  92 CALM      30.16S
EAGLE          CLOUDY    20  17  88 CALM      30.20S
RIFLE          CLOUDY    27  23  85 SW5       30.16S WCI  22
DELTA          FAIR      32  29  89 N3        30.16S
NUCLA          FAIR      27  23  86 SE5       30.18S WCI  21
$$

COZ017>023-064>068-181400-
...SOUTHWEST COLORADO...

CITY           SKY/WX    TMP DP  RH WIND       PRES   REMARKS
DURANGO        MOCLDY    30  28  92 W3        30.10F FOG
CORTEZ         FAIR      23  21  92 E3        30.13S
PAGOSA SPRINGS CLOUDY    31  25  80 CALM      30.10F
TELLURIDE      FAIR      17  13  82 SE7       30.14F WCI   8
WOLF CREEK PAS CLOUDY    16  16 100 S12G21    30.13S WCI   3
$$

COZ009-010-012-014-032>034-037-058>063-181400-
...CENTRAL COLORADO...

CITY           SKY/WX    TMP DP  RH WIND       PRES   REMARKS
ASPEN          CLOUDY    20  12  71 S10       30.13F WCI   9
BUENA VISTA    FAIR      -1  -5  83 CALM      30.08S
COPPER MTN     FAIR      21  -6  30 MISG      30.08F
BERTHOUD PASS  NOT AVBL
COTTONWOOD PAS FAIR      23   5  46 CALM      30.05R
GUNNISON       CLOUDY    21  18  88 CALM      30.16R
KREMMLING      FLURRIES  16  12  86 CALM      30.21S
LEADVILLE      FAIR       8   5  87 NE13      30.06R WCI  -8
MONARCH PASS   MOCLDY    10   7  85 MISG      30.17S
SALIDA         FAIR      18  10  71 N13G18    30.14S WCI   4
SUNLIGHT       FAIR     N/A N/A N/A CALM      30.13F
WILKERSON PASS NOT AVBL
$$

COZ069>075-181400-
...SAN LUIS VALLEY/SANGRE DE CRISTO MOUNTAINS...

CITY           SKY/WX    TMP DP  RH WIND       PRES   REMARKS
ALAMOSA        CLOUDY    25  24  96 N3        30.10S
LA VETA PASS   CLOUDY    19  18  93 MISG      30.01S FOG
SAGUACHE       FAIR      14  10  85 N10       30.11S WCI   1
$$

COZ035-036-038>040-181400-
...NORTHERN COLORADO FRONT RANGE...

CITY           SKY/WX    TMP DP  RH WIND       PRES   REMARKS
DENVER INTL AP FAIR      24  14  65 SW10      29.95R WCI  14
DMNS CITY PARK   N/A     23  14  68 SE8       29.97R WCI  14
AURORA         CLEAR     25  13  61 SW8       29.96R WCI  16
FRONT RANGE AP NOT AVBL
ERIE MUNI ARPT FAIR      14  11  87 SW3       29.96R
BOULDER MUN AP FAIR      27  18  69 S3        29.96R
CENTENNIAL     FAIR      20  10  65 CALM      29.95R
BROOMFIELD     CLEAR     30  10  43 W5        29.95R WCI  25
FORT COLLINS   FAIR      23  18  80 S8        29.95S WCI  14
LONGMONT       FAIR      18  13  80 W3        29.98R
$$

COZ041-046-047-076>085-087-088-181400-
...PIKES PEAK/PALMER DIVIDE AND SOUTHERN FOOTHILLS...

CITY           SKY/WX    TMP DP  RH WIND       PRES   REMARKS
COLO. SPRINGS  FAIR      23  14  68 NE10      29.96R WCI  12
A. F. ACADEMY  FAIR      18  11  74 N12       29.95R WCI   5
SCHRIEVER AFB  NOT AVBL
ELLICOTT       FAIR     N/A N/A N/A CALM      29.93S
FALCON         FAIR      24  12  60 NW5       29.97R WCI  18
FORT CARSON    CLEAR     27  14  59 NE7       29.96R WCI  19
LIMON          FAIR      10   7  87 N6        29.94F WCI   0
MONUMENT HILL  FAIR      19   7  58 SW7       29.98R WCI  10
TRINIDAD       FAIR      27  20  75 W15       29.96F WCI  15
$$

COZ042>045-048>051-090-091-181400-
...NORTHEAST COLORADO...

CITY           SKY/WX    TMP DP  RH WIND       PRES   REMARKS
GREELEY ARPT   FAIR      17  14  88 S3          N/A
AKRON          FAIR      22  14  71 W14       29.93R WCI   9
BURLINGTON     FAIR      25  22  88 W10       29.93S WCI  15
WRAY           NOT AVBL
STERLING       FAIR      14  12  92 S5        29.95R WCI   6
HOLYOKE        FAIR      19  16  86 W9        29.94R WCI   9
FORT MORGAN    FAIR      20  19  93 W10       29.94F WCI   9
$$

COZ086-089-092>099-181400-
...SOUTHEAST COLORADO...

CITY           SKY/WX    TMP DP  RH WIND       PRES   REMARKS
PUEBLO         FOG       25  22  88 CALM      29.96F VSB 1/4
LA JUNTA       FAIR      17  14  88 W15       29.96F WCI   2
LAMAR          FOG       20  18  92 W9        29.95F VSB 1/2 WCI   9
SPRINGFIELD      N/A     32  30  92 SW13      29.94F WCI  22
$$




USA.gov is the U.S. government's official web portal to all federal, state and local government web resources and services.